OpenBCM V1.13 (Linux)

Packet Radio Mailbox

DB0FHN

[JN59NK Nuernberg]

 Login: GUEST





  
CX2SA  > KEPS     19.11.04 09:46l 207 Lines 5447 Bytes #999 (0) @ AMSAT
BID : ORB04323.W
Read: GUEST
Subj: Orbital Elements  04323.WEATHER
Path: DB0FHN<DB0MRW<OK0PPL<DB0RES<ON0AR<7M3TJZ<EA5AKC<CX2SA
Sent: 041119/0736Z @:CX2SA.LAV.URY.SA #:40536 [Minas] FBB7.00e $:ORB04323.W
From: CX2SA@CX2SA.LAV.URY.SA
To  : KEPS@AMSAT


HR AMSAT ORBITAL ELEMENTS FOR WEATHER SATELLITES
FROM WA5QGD FORT WORTH,TX November 18, 2004
SEND SUBSCRIBE/UNSUBSCRIBE TO majordomo@amsat.org ONLY
BID: ORB04323.W
TO ALL RADIO AMATEURS BT

Satellite: NOAA-10
Catalog number: 16969
Epoch time:      04323.38240222
Element set:     475
Inclination:       98.7618 deg
RA of node:       322.6862 deg
Eccentricity:    0.0012764
Arg of perigee:    30.7990 deg
Mean anomaly:     329.3942 deg
Mean motion:   14.27225631 rev/day
Decay rate:       1.68e-06 rev/day^2
Epoch rev:           94502
Checksum:              309

Satellite: NOAA-11
Catalog number: 19531
Epoch time:      04323.25596035
Element set:     332
Inclination:       98.8609 deg
RA of node:        46.0780 deg
Eccentricity:    0.0011956
Arg of perigee:   184.0494 deg
Mean anomaly:     176.0613 deg
Mean motion:   14.14737894 rev/day
Decay rate:      -2.34e-06 rev/day^2
Epoch rev:           83310
Checksum:              300

Satellite: NOAA-12
Catalog number: 21263
Epoch time:      04323.81040008
Element set:     819
Inclination:       98.6845 deg
RA of node:       310.0210 deg
Eccentricity:    0.0012389
Arg of perigee:   324.6530 deg
Mean anomaly:      35.4315 deg
Mean motion:   14.25430501 rev/day
Decay rate:       1.31e-06 rev/day^2
Epoch rev:           70231
Checksum:              235

Satellite: MET-3/5
Catalog number: 21655
Epoch time:      04323.13276727
Element set:     672
Inclination:       82.5539 deg
RA of node:       307.7567 deg
Eccentricity:    0.0014105
Arg of perigee:    45.7144 deg
Mean anomaly:     314.5074 deg
Mean motion:   13.16998614 rev/day
Decay rate:        5.1e-07 rev/day^2
Epoch rev:           63753
Checksum:              305

Satellite: MET-2/21
Catalog number: 22782
Epoch time:      04322.81590334
Element set:      58
Inclination:       82.5495 deg
RA of node:        68.6577 deg
Eccentricity:    0.0021907
Arg of perigee:     0.1077 deg
Mean anomaly:       0.0095 deg
Mean motion:   13.83574470 rev/day
Decay rate:        8.4e-07 rev/day^2
Epoch rev:           56634
Checksum:              292

Satellite: OKEAN-4
Catalog number: 23317
Epoch time:      04323.36804131
Element set:     475
Inclination:       82.5383 deg
RA of node:        93.9304 deg
Eccentricity:    0.0023986
Arg of perigee:   109.4864 deg
Mean anomaly:     250.8951 deg
Mean motion:   14.81965852 rev/day
Decay rate:       5.81e-06 rev/day^2
Epoch rev:           54468
Checksum:              321

Satellite: NOAA-14
Catalog number: 23455
Epoch time:      04323.84976736
Element set:     354
Inclination:       99.1221 deg
RA of node:         2.4335 deg
Eccentricity:    0.0008755
Arg of perigee:   230.2266 deg
Mean anomaly:     129.8605 deg
Mean motion:   14.13510301 rev/day
Decay rate:       2.29e-06 rev/day^2
Epoch rev:           50987
Checksum:              287

Satellite: SICH-1
Catalog number: 23657
Epoch time:      04323.38272388
Element set:     278
Inclination:       82.5307 deg
RA of node:       234.7207 deg
Eccentricity:    0.0025828
Arg of perigee:    94.4176 deg
Mean anomaly:     265.9994 deg
Mean motion:   14.80993362 rev/day
Decay rate:       5.99e-06 rev/day^2
Epoch rev:           49675
Checksum:              353

Satellite: NOAA-15
Catalog number: 25338
Epoch time:      04323.84049865
Element set:     803
Inclination:       98.5176 deg
RA of node:       332.5636 deg
Eccentricity:    0.0009675
Arg of perigee:   252.4888 deg
Mean anomaly:     107.5715 deg
Mean motion:   14.24467871 rev/day
Decay rate:       1.32e-06 rev/day^2
Epoch rev:           33881
Checksum:              331

Satellite: RESURS
Catalog number: 25394
Epoch time:      04323.49594118
Element set:     950
Inclination:       98.5670 deg
RA of node:        32.4317 deg
Eccentricity:    0.0002261
Arg of perigee:    69.1110 deg
Mean anomaly:     291.0312 deg
Mean motion:   14.24035625 rev/day
Decay rate:        6.9e-07 rev/day^2
Epoch rev:           33046
Checksum:              265

Satellite: FENGYUN1
Catalog number: 25730
Epoch time:      04322.65411766
Element set:     282
Inclination:       98.6053 deg
RA of node:       326.9419 deg
Eccentricity:    0.0014493
Arg of perigee:   348.1956 deg
Mean anomaly:      11.8858 deg
Mean motion:   14.11783396 rev/day
Decay rate:       1.35e-06 rev/day^2
Epoch rev:           28466
Checksum:              317

Satellite: OKEAN-0
Catalog number: 25860
Epoch time:      04323.40995499
Element set:     282
Inclination:       97.7813 deg
RA of node:       352.3336 deg
Eccentricity:    0.0001631
Arg of perigee:   118.5347 deg
Mean anomaly:     241.6016 deg
Mean motion:   14.73154094 rev/day
Decay rate:       3.38e-06 rev/day^2
Epoch rev:           28697
Checksum:              308

Satellite: NOAA-16
Catalog number: 26536
Epoch time:      04323.86483622
Element set:     105
Inclination:       98.9850 deg
RA of node:       275.4430 deg
Eccentricity:    0.0010097
Arg of perigee:   304.4981 deg
Mean anomaly:      55.5723 deg
Mean motion:   14.12175908 rev/day
Decay rate:        9.6e-07 rev/day^2
Epoch rev:           21437
Checksum:              304

Satellite: NOAA-17
Catalog number: 27453
Epoch time:      04323.86336598
Element set:     126
Inclination:       98.6858 deg
RA of node:        34.3330 deg
Eccentricity:    0.0011098
Arg of perigee:   308.0395 deg
Mean anomaly:      52.0257 deg
Mean motion:   14.23597050 rev/day
Decay rate:       2.55e-06 rev/day^2
Epoch rev:           12491
Checksum:              301



Read previous mail | Read next mail


 11.09.2026 20:28:00lGo back Go up